Location: Drummondville
(45.8830°N, 72.4830°W)
Time: 04:35:23
(UTC-05:00)

ISS - Pass Details

Date: 17 November 2017
Orbit: 402 x 407 km, 51.6° (Epoch: 23 November)

Event Time Altitude Azimuth Distance (km) Brightness Sun altitude
Exits shadow 04:58:57 29° 188° (S) 774 -2.5 -19.7°
Drops below altitude 10° 05:01:09 10° 153° (SSE) 1,447 -0.6 -19.3°
Sets 05:03:20 0° 143° (SE) 2,303 0.7 -19.0°
